Tracking 22124 objects as of 25-Jan-2021
HD Live streaming from Space Station
objects crossing your sky now

STARLINK-1134

Track STARLINK-1134 now!
10-day predictions
STARLINK-1134 is classified as:


NORAD ID: 45048
Int'l Code: 2020-006E
Perigee: 553.2 km
Apogee: 555.5 km
Inclination: 53.1 °
Period: 95.6 minutes
Semi major axis: 6925 km
RCS: Unknown
Launch date: January 29, 2020
Source: United States (US)
Launch site: AIR FORCE EASTERN TEST RANGE (AFETR)
aabbcc
Your satellite tracking list
Your tracking list is empty




NASA's NSSDC Master Catalog

Two Line Element Set (TLE):
1 45048U 20006E   21024.92930534  .00000235  00000-0  34696-4 0  9995
2 45048  53.0564  40.2775 0001694  59.3588 300.7568 15.06402403 54642
Source of the keplerian elements: AFSPC